User: anonymous   Login
Location: Cutler
(25.6150°N, 80.3110°W)
Time: 19:14:13
(UTC-05:00)
Language:

Cosmos 2360 Rocket - Orbit

View from above orbital plane
View from above orbital plane
View from above satellite
View from above satellite

Ground track
Ground track

The orbit data is extracted from the following two-line orbital elements,

1 25407U 98045B   15062.37700741 -.00000015  00000-0  16706-4 0  9998
2 25407 071.0137 359.8795 0006411 027.3403 332.8056 14.15697041857742
Epoch (UTC): 03 March 2015 09:02:53
Eccentricity: 0.0006411
inclination: 71.0137°
perigee height: 835 km
apogee height: 844 km
right ascension of ascending node: 359.8795°
argument of perigee: 27.3403°
revolutions per day: 14.15697041
mean anomaly at epoch: 332.8056°
orbit number at epoch: 85774

The dashed part of the orbit path shows where the satellite is in the earth's shadow,  

DLR